CDT,Max TemperatureF,Mean TemperatureF,Min TemperatureF,Max Dew PointF,MeanDew PointF,Min DewpointF,Max Humidity, Mean Humidity, Min Humidity, Max Sea Level PressureIn, Mean Sea Level PressureIn, Min Sea Level PressureIn, Max VisibilityMiles, Mean VisibilityMiles, Min VisibilityMiles, Max Wind SpeedMPH, Mean Wind SpeedMPH, Max Gust SpeedMPH,PrecipitationIn, CloudCover, Events, WindDirDegrees
2013-3-1,32,16,0,9,1,-8,85,67,38,30.44,30.39,30.33,10,10,10,12,7,,0.00,1,,69
2013-3-2,26,8,-9,18,4,-18,80,66,55,30.33,30.20,30.07,10,10,10,16,4,,0.00,4,,157
2013-3-3,33,22,12,18,12,5,74,58,38,30.06,29.98,29.92,10,10,10,13,6,,0.00,4,,135
2013-3-4,28,26,23,19,15,10,80,67,47,30.11,29.99,29.94,10,7,0,22,13,30,0.00,5,Snow,78
2013-3-5,24,19,14,19,16,9,86,82,74,30.38,30.26,30.11,10,6,0,20,13,23,0.00,5,Snow,56
2013-3-6,21,12,1,16,8,-2,86,81,73,30.43,30.37,30.32,10,8,0,6,1,,0.00,4,Snow,137
2013-3-7,32,12,-7,18,8,-13,86,71,51,30.35,30.27,30.18,10,10,7,13,5,,0.00,1,,128
2013-3-8,30,24,19,23,19,12,80,75,69,30.18,30.16,30.10,10,8,2,14,8,17,0.00,1,,209
2013-3-9,33,28,24,28,23,18,87,81,74,30.08,29.90,29.80,10,5,1,21,5,24,0.01,2,Snow,15
2013-3-10,30,20,10,18,12,1,80,67,47,30.17,30.09,29.95,10,10,10,21,13,29,0.00,2,,340
2013-3-11,24,10,-4,14,6,-9,85,73,59,30.08,29.90,29.80,10,10,10,8,2,,0.00,2,Snow,60
2013-3-12,28,20,10,16,10,5,79,66,47,30.24,30.04,29.85,10,10,10,18,9,17,0.00,0,,322
2013-3-13,21,8,-4,12,4,-9,85,72,58,30.31,30.24,30.10,10,10,1,12,6,,0.00,2,Snow,212
2013-3-14,33,27,21,27,20,12,86,76,64,30.10,30.05,30.02,10,10,7,21,8,28,0.00,2,,235
2013-3-15,21,14,3,14,5,-2,85,71,53,30.13,30.10,30.06,10,9,2,20,12,21,0.00,2,Snow,39
2013-3-16,10,3,-4,3,-5,-13,85,72,56,30.27,30.17,30.11,10,8,1,17,7,24,0.00,2,Snow,296
2013-3-17,19,0,-18,14,-6,-26,80,66,49,30.28,30.04,29.72,10,8,1,15,6,22,0.00,1,Snow,144
2013-3-18,23,16,8,18,13,1,86,80,73,29.83,29.60,29.47,10,3,0,25,12,29,0.07,6,Snow,7
2013-3-19,14,4,-5,3,-4,-11,79,67,57,30.20,30.04,29.84,10,9,2,20,13,25,0.00,0,,291
2013-3-20,19,8,-2,7,-2,-11,73,64,53,30.23,30.17,30.13,10,10,7,16,11,23,0.00,0,,290
2013-3-21,23,6,-11,12,-1,-18,84,71,54,30.14,30.11,30.08,10,10,10,8,2,,0.00,0,,223
2013-3-22,26,10,-5,19,5,-11,86,78,69,30.12,30.10,30.08,10,9,1,13,3,,0.00,0,,54
2013-3-23,32,18,3,21,12,-2,86,77,60,30.18,30.15,30.12,10,10,3,10,3,,0.00,3,Snow,58
2013-3-24,30,26,21,21,18,16,86,72,60,30.21,30.17,30.15,10,10,10,14,5,,0.00,7,,17
2013-3-25,33,25,17,21,17,12,80,69,51,30.28,30.25,30.21,10,10,10,14,7,20,0.00,4,,319
2013-3-26,32,18,5,19,12,0,86,74,60,30.30,30.29,30.27,10,10,10,10,6,,0.00,0,,268
2013-3-27,35,18,0,23,11,-6,85,72,52,30.32,30.30,30.29,10,10,0,7,1,,0.00,0,,299
2013-3-28,42,26,10,28,17,5,85,68,39,30.30,30.26,30.22,10,10,10,5,0,,0.00,4,,177
2013-3-29,37,27,17,28,22,12,86,78,70,30.23,30.13,29.98,10,8,2,6,1,,0.00,0,,295
2013-3-30,42,32,23,28,25,18,86,76,57,29.98,29.88,29.81,10,7,0,17,5,23,0.00,3,Fog,271
2013-3-31,32,24,14,27,15,9,86,69,54,30.15,29.97,29.79,10,10,3,26,14,32,0.00,3,Snow,317